Change the Weather History Date:

Saturday, December 1, 2012

  Actual Average Record
Temperature  
Mean Temperature 38 °F -  
Max Temperature 50 °F 40 °F 60 °F (1996)
Min Temperature 26 °F 28 °F 13 °F (1989)
Degree Days  
Heating Degree Days 27    
Moisture  
Dew Point 29 °F    
Average Humidity 80    
Maximum Humidity 93    
Minimum Humidity 59    
Precipitation  
Precipitation 0.00 in - - ()
Sea Level Pressure  
Sea Level Pressure 30.30 in    
Wind  
Wind Speed 9 mph (East)    
Max Wind Speed 14 mph    
Max Gust Speed -    
Visibility 7 miles    
Events      
Averages and records for this station are not official NWS values.
T = Trace of Precipitation, MM = Missing Value Source: NWS Daily Summary

Daily Weather History Graph

Daily Weather History Graph

Search for Another Location

Airport or City:

Trip Planner

Search our weather history database for the weather conditions in past years. The results will help you decide how hot, cold, wet, or windy it might be!

Date:

Astronomy

Dec. 01, 2012 Rise Set
Actual Time 7:28 AM EST 4:41 PM EST
Civil Twilight 6:56 AM EST 5:13 PM EST
Nautical Twilight 6:20 AM EST 5:48 PM EST
Astronomical Twilight 5:46 AM EST 6:23 PM EST
Moon 7:31 PM EST (12/1) 9:38 AM EST (12/1)
Length of Visible Light 10h 17m
Length of Day
9h 13m
Waning Gibbous, 92% of the Moon is Illuminated
Dec 1
Waning Gibbous
Dec 6
Last Quarter
Dec 13
New
Dec 20
First Quarter
Dec 28
Full

Hourly Weather History & Observations

Time (EST) Temp. Windchill Dew Point Humidity Pressure Visibility Wind Dir Wind Speed Gust Speed Precip Events Conditions
12:10 AM 28.4 °F 18.0 °F 24.8 °F 86% 30.32 in 9.0 mi ENE 12.7 mph - N/A   Overcast
12:31 AM 28.4 °F 18.0 °F 24.8 °F 86% 30.30 in 8.0 mi East 12.7 mph - N/A   Overcast
12:53 AM 28.9 °F 18.2 °F 25.0 °F 85% 30.34 in 7.0 mi East 13.8 mph - N/A   Overcast
1:53 AM 28.0 °F 19.3 °F 24.1 °F 85% 30.33 in 6.0 mi East 9.2 mph - N/A   Overcast
2:04 AM 26.6 °F 18.2 °F 24.8 °F 93% 30.29 in 6.0 mi East 8.1 mph - N/A   Overcast
2:53 AM 27.0 °F 18.0 °F 24.1 °F 89% 30.35 in 6.0 mi East 9.2 mph - N/A   Overcast
3:53 AM 28.0 °F 18.1 °F 25.0 °F 88% 30.35 in 5.0 mi ENE 11.5 mph - N/A   Overcast
4:53 AM 28.0 °F 20.0 °F 25.0 °F 88% 30.36 in 5.0 mi ENE 8.1 mph - N/A   Overcast
5:53 AM 28.0 °F 20.0 °F 25.0 °F 88% 30.38 in 6.0 mi ENE 8.1 mph - N/A   Overcast
6:42 AM 28.4 °F 20.4 °F 24.8 °F 86% 30.33 in 5.0 mi ENE 8.1 mph - N/A   Overcast
6:53 AM 28.9 °F 20.4 °F 26.1 °F 89% 30.38 in 5.0 mi ENE 9.2 mph - N/A   Overcast
7:08 AM 28.4 °F 19.1 °F 24.8 °F 86% 30.33 in 6.0 mi ENE 10.4 mph - N/A   Overcast
7:53 AM 28.9 °F 22.8 °F 25.0 °F 85% 30.38 in 6.0 mi East 5.8 mph - N/A   Mostly Cloudy
8:53 AM 30.0 °F 22.4 °F 26.1 °F 85% 30.36 in 7.0 mi East 8.1 mph - N/A   Mostly Cloudy
9:53 AM 32.0 °F 26.4 °F 27.0 °F 82% 30.37 in 7.0 mi East 5.8 mph - N/A   Mostly Cloudy
10:53 AM 34.0 °F 28.8 °F 27.0 °F 75% 30.34 in 6.0 mi East 5.8 mph - N/A   Haze
11:53 AM 37.0 °F 34.5 °F 28.9 °F 73% 30.31 in 7.0 mi ENE 3.5 mph - N/A   Mostly Cloudy
12:53 PM 37.9 °F 34.4 °F 30.0 °F 73% 30.29 in 6.0 mi East 4.6 mph - N/A   Haze
1:53 PM 39.0 °F 36.8 °F 30.9 °F 73% 30.28 in 6.0 mi East 3.5 mph - N/A   Haze
2:53 PM 39.9 °F 36.7 °F 32.0 °F 73% 30.27 in 7.0 mi East 4.6 mph - N/A   Mostly Cloudy
3:53 PM 41.0 °F 37.1 °F 33.1 °F 73% 30.27 in 6.0 mi ENE 5.8 mph - N/A   Haze
4:53 PM 39.0 °F 35.7 °F 33.1 °F 79% 30.25 in 7.0 mi East 4.6 mph - N/A   Overcast
5:53 PM 39.9 °F - 33.1 °F 77% 30.25 in 6.0 mi Calm Calm - N/A   Haze
6:53 PM 39.9 °F - 33.1 °F 77% 30.23 in 6.0 mi Calm Calm - N/A   Haze
7:53 PM 39.9 °F - 34.0 °F 79% 30.23 in 6.0 mi Calm Calm - N/A   Haze
8:53 PM 39.0 °F - 33.1 °F 79% 30.21 in 6.0 mi Calm Calm - N/A   Haze
9:53 PM 48.0 °F - 37.0 °F 66% 30.17 in 10.0 mi South 9.2 mph - N/A   Overcast
10:53 PM 50.0 °F - 36.0 °F 59% 30.15 in 10.0 mi South 13.8 mph - N/A   Overcast
11:53 PM 50.0 °F - 36.0 °F 59% 30.16 in 10.0 mi SSW 10.4 mph - N/A   Mostly Cloudy